Weather History for KDPL - March, 2014

Change the Weather History Date:

Saturday, March 22, 2014

  Actual Average (KGSB) Record (KGSB)
Temperature  
Mean Temperature 60 °F -  
Max Temperature 77 °F 65 °F 84 °F (2011)
Min Temperature 42 °F 43 °F 27 °F (2013)
Degree Days  
Heating Degree Days 6    
Growing Degree Days 10 (Base 50)    
Moisture  
Dew Point 44 °F    
Average Humidity 59    
Maximum Humidity 94    
Minimum Humidity 26    
Precipitation  
Precipitation 0.00 in - - ()
Sea Level Pressure  
Sea Level Pressure 30.03 in    
Wind  
Wind Speed 3 mph (SW)    
Max Wind Speed 16 mph    
Max Gust Speed 24 mph    
Visibility 10 miles    
Events      
Averages and records for this station are not official NWS values.
T = Trace of Precipitation, MM = Missing Value Source: NWS Daily Summary

Daily Weather History Graph

Daily Weather History Graph

Search for Another Location

Airport or City:

Trip Planner

Search our weather history database for the weather conditions in past years. The results will help you decide how hot, cold, wet, or windy it might be!

Date:

Astronomy

Mar. 22, 2014 Rise Set
Actual Time 7:12 AM EDT 7:25 PM EDT
Civil Twilight 6:47 AM EDT 7:50 PM EDT
Nautical Twilight 6:18 AM EDT 8:20 PM EDT
Astronomical Twilight 5:48 AM EDT 8:50 PM EDT
Moon 12:31 AM EDT (3/22) 11:05 AM EDT (3/22)
Length of Visible Light 13h 03m
Length of Day
12h 12m
Waning Gibbous, 65% of the Moon is Illuminated
Mar 22
Waning Gibbous
Mar 23
Last Quarter
Mar 30
New
Apr 7
First Quarter
Apr 15
Full

Hourly Weather History & Observations

Time (EDT) Temp. Dew Point Humidity Pressure Visibility Wind Dir Wind Speed Gust Speed Precip Events Conditions
12:15 AM 49.6 °F 35.2 °F 58% 30.12 in 10.0 mi Calm Calm - N/A   Clear
12:35 AM 48.7 °F 36.0 °F 61% 30.12 in 10.0 mi Calm Calm - N/A   Clear
12:55 AM 49.1 °F 35.4 °F 59% 30.11 in 10.0 mi Calm Calm - N/A   Clear
1:15 AM 50.5 °F 35.2 °F 56% 30.11 in 10.0 mi Calm Calm - N/A   Clear
1:35 AM 50.7 °F 36.9 °F 59% 30.10 in 10.0 mi Calm Calm - N/A   Clear
1:55 AM 50.7 °F 37.9 °F 62% 30.10 in 10.0 mi Calm Calm - N/A   Clear
2:15 AM 50.0 °F 38.5 °F 65% 30.10 in 10.0 mi Calm Calm - N/A   Clear
2:35 AM 49.6 °F 39.2 °F 67% 30.08 in 10.0 mi Calm Calm - N/A   Clear
2:55 AM 48.7 °F 39.7 °F 71% 30.07 in 10.0 mi Calm Calm - N/A   Clear
3:15 AM 49.5 °F 40.8 °F 72% 30.07 in 10.0 mi Calm Calm - N/A   Clear
3:35 AM 48.6 °F 41.2 °F 76% 30.07 in 10.0 mi Calm Calm - N/A   Clear
3:55 AM 48.4 °F 41.7 °F 78% 30.06 in 10.0 mi Calm Calm - N/A   Clear
4:15 AM 48.6 °F 42.1 °F 78% 30.06 in 10.0 mi Calm Calm - N/A   Clear
4:35 AM 48.6 °F 43.0 °F 81% 30.06 in 10.0 mi Calm Calm - N/A   Clear
4:55 AM 47.7 °F 42.8 °F 83% 30.06 in 10.0 mi Calm Calm - N/A   Clear
5:15 AM 45.7 °F 41.7 °F 86% 30.06 in 10.0 mi Calm Calm - N/A   Clear
5:35 AM 45.5 °F 41.4 °F 85% 30.07 in 10.0 mi Calm Calm - N/A   Clear
5:55 AM 44.2 °F 41.4 °F 90% 30.06 in 10.0 mi Calm Calm - N/A   Clear
6:15 AM 43.7 °F 41.2 °F 91% 30.07 in 10.0 mi Calm Calm - N/A   Clear
6:35 AM 43.5 °F 41.0 °F 91% 30.06 in 10.0 mi Calm Calm - N/A   Clear
6:55 AM 43.5 °F 41.5 °F 93% 30.07 in 10.0 mi Calm Calm - N/A   Clear
7:15 AM 42.8 °F 41.0 °F 93% 30.07 in 10.0 mi Calm Calm - N/A   Clear
7:35 AM 44.1 °F 42.4 °F 94% 30.08 in 7.0 mi Calm Calm - N/A   Clear
7:55 AM 45.5 °F 43.2 °F 92% 30.08 in 10.0 mi Calm Calm - N/A   Clear
8:15 AM 47.3 °F 44.2 °F 89% 30.08 in 10.0 mi Calm Calm - N/A   Clear
8:35 AM 50.5 °F 46.8 °F 87% 30.08 in 10.0 mi Calm Calm - N/A   Clear
8:55 AM 53.1 °F 47.1 °F 80% 30.08 in 10.0 mi Calm Calm - N/A   Clear
9:15 AM 55.6 °F 47.8 °F 75% 30.08 in 10.0 mi Calm Calm - N/A   Clear
9:35 AM 58.3 °F 48.6 °F 70% 30.08 in 10.0 mi SW 3.5 mph - N/A   Clear
9:55 AM 61.0 °F 47.8 °F 62% 30.08 in 10.0 mi SW 6.9 mph - N/A   Clear
10:15 AM 64.4 °F 46.0 °F 51% 30.08 in 10.0 mi SW 6.9 mph - N/A   Clear
10:35 AM 66.6 °F 42.8 °F 42% 30.08 in 10.0 mi SW 9.2 mph - N/A   Clear
10:55 AM 68.9 °F 42.3 °F 38% 30.07 in 10.0 mi WSW 11.5 mph 16.1 mph N/A   Clear
11:15 AM 70.3 °F 43.5 °F 38% 30.07 in 10.0 mi SW 11.5 mph 18.4 mph N/A   Clear
11:35 AM 70.7 °F 44.2 °F 39% 30.06 in 10.0 mi SW 11.5 mph 19.6 mph N/A   Clear
11:55 AM 72.0 °F 44.1 °F 37% 30.05 in 10.0 mi SW 13.8 mph 19.6 mph N/A   Clear
12:15 PM 73.0 °F 44.1 °F 35% 30.05 in 10.0 mi WSW 13.8 mph 21.9 mph N/A   Clear
12:35 PM 73.8 °F 44.6 °F 35% 30.03 in 10.0 mi SW 11.5 mph 20.7 mph N/A   Clear
12:55 PM 74.7 °F 44.4 °F 34% 30.03 in 10.0 mi WSW 10.4 mph 16.1 mph N/A   Clear
1:15 PM 75.6 °F 41.4 °F 29% 30.02 in 10.0 mi SW 16.1 mph 23.0 mph N/A   Scattered Clouds
1:35 PM 74.5 °F 40.8 °F 30% 30.00 in 10.0 mi WSW 13.8 mph 23.0 mph N/A   Scattered Clouds
1:55 PM 75.4 °F 38.5 °F 26% 30.00 in 10.0 mi WSW 13.8 mph 24.2 mph N/A   Scattered Clouds
2:15 PM 76.1 °F 39.0 °F 26% 29.98 in 10.0 mi SW 11.5 mph 21.9 mph N/A   Scattered Clouds
2:35 PM 75.9 °F 39.6 °F 27% 29.97 in 10.0 mi WSW 12.7 mph 20.7 mph N/A   Clear
2:55 PM 76.5 °F 41.7 °F 29% 29.96 in 10.0 mi SW 12.7 mph 20.7 mph N/A   Scattered Clouds
3:15 PM 76.6 °F 41.0 °F 28% 29.96 in 10.0 mi WSW 13.8 mph 18.4 mph N/A   Clear
3:35 PM 76.1 °F 41.0 °F 28% 29.95 in 10.0 mi WSW 15.0 mph 20.7 mph N/A   Clear
3:55 PM 76.6 °F 40.3 °F 27% 29.96 in 10.0 mi SW 15.0 mph 24.2 mph N/A   Scattered Clouds
4:15 PM 76.1 °F 41.2 °F 29% 29.96 in 10.0 mi SW 10.4 mph 17.3 mph N/A   Clear
4:35 PM 77.0 °F 41.9 °F 28% 29.96 in 10.0 mi WSW 12.7 mph 18.4 mph N/A   Scattered Clouds
4:55 PM 77.2 °F 42.1 °F 29% 29.95 in 10.0 mi WSW 10.4 mph - N/A   Scattered Clouds
5:15 PM 75.9 °F 41.5 °F 29% 29.95 in 10.0 mi WSW 11.5 mph - N/A   Scattered Clouds
5:35 PM 76.3 °F 41.5 °F 29% 29.95 in 10.0 mi West 10.4 mph 16.1 mph N/A   Scattered Clouds
5:55 PM 74.8 °F 40.8 °F 29% 29.96 in 10.0 mi WSW 10.4 mph 16.1 mph N/A   Mostly Cloudy
6:15 PM 74.3 °F 41.4 °F 31% 29.96 in 10.0 mi WSW 5.8 mph - N/A   Mostly Cloudy
6:35 PM 73.4 °F 41.7 °F 32% 29.97 in 10.0 mi West 4.6 mph - N/A   Mostly Cloudy
6:55 PM 72.5 °F 42.8 °F 34% 29.97 in 10.0 mi Calm Calm - N/A   Mostly Cloudy
7:15 PM 68.5 °F 47.1 °F 46% 29.97 in 10.0 mi Calm Calm - N/A   Scattered Clouds
7:35 PM 66.2 °F 47.8 °F 52% 29.98 in 10.0 mi Calm Calm - N/A   Mostly Cloudy
7:55 PM 69.1 °F 48.7 °F 48% 29.98 in 10.0 mi Calm Calm - N/A   Mostly Cloudy
8:15 PM 67.3 °F 51.1 °F 56% 29.98 in 10.0 mi Calm Calm - N/A   Scattered Clouds
8:35 PM 66.7 °F 52.5 °F 60% 29.98 in 10.0 mi Calm Calm - N/A   Clear
8:55 PM 66.2 °F 55.2 °F 68% 29.98 in 10.0 mi South 4.6 mph - N/A   Clear
9:15 PM 66.0 °F 56.8 °F 72% 29.98 in 10.0 mi Calm Calm - N/A   Clear
9:35 PM 66.0 °F 57.6 °F 74% 30.00 in 10.0 mi South 4.6 mph - N/A   Clear
9:55 PM 65.5 °F 58.1 °F 77% 30.01 in 10.0 mi Calm Calm - N/A   Clear
10:15 PM 64.6 °F 57.7 °F 78% 30.01 in 10.0 mi SSW 4.6 mph - N/A   Clear
10:35 PM 63.9 °F 58.1 °F 81% 30.02 in 10.0 mi Calm Calm - N/A   Clear
10:55 PM 63.0 °F 58.1 °F 84% 30.02 in 10.0 mi Calm Calm - N/A   Clear
11:15 PM 62.6 °F 58.1 °F 85% 30.02 in 10.0 mi Calm Calm - N/A   Clear
11:35 PM 61.7 °F 58.1 °F 88% 30.01 in 10.0 mi Calm Calm - N/A   Scattered Clouds
11:55 PM 60.8 °F 57.9 °F 90% 30.01 in 10.0 mi Calm Calm - N/A   Scattered Clouds